Regional Weather Roundup
Issued by NWS Upton, NY

Current Version | Previous Version | Graphics & Text | Print | Product List | Glossary Off
Versions: 1 2 3 4 5 6 7 8 9 10 11 12 13 14 15 16 17 18 19 20 21 22 23 24 25 26 27 28 29 30 31 32 33 34 35 36 37 38 39 40 41 42 43 44 45 46 47 48 49 50

000
ASUS41 KOKX 190605
RWROKX

REGIONAL WEATHER ROUNDUP
NATIONAL WEATHER SERVICE NEW YORK NY
100 AM EST FRI DEC 19 2014

NOTE: "FAIR" INDICATES FEW OR NO CLOUDS BELOW 12,000 FEET WITH NO
SIGNIFICANT WEATHER AND/OR OBSTRUCTIONS TO VISIBILITY.

NYZ071-072-176-178-NJZ106-104-190700-
NEW YORK CITY METRO AREA


CITY           SKY/WX    TMP DP  RH WIND       PRES   REMARKS
CENTRAL PARK   CLOUDY    38  25  59 VRB7      29.98F WCI  33
LAGUARDIA APRT CLOUDY    38  27  64 NW14      29.96F WCI  30
KENNEDY INTL   MOCLDY    39  25  57 NW14      29.98S WCI  31
NEWARK/LIBERTY MOCLDY    37  27  67 NW9       29.98S WCI  30
BRNX BOT. GARD   N/A    N/A N/A N/A W12       29.97S
TETERBORO      CLOUDY    37  26  64 NW7       29.96F WCI  32
$$

NYZ177-179-078>081-190700-
LONG ISLAND NEW YORK

CITY           SKY/WX    TMP DP  RH WIND       PRES   REMARKS
FARMINGDALE    PTCLDY    35  26  69 CALM      29.96S
ISLIP          PTCLDY    31  25  78 W7        29.94S WCI  24
SHIRLEY        CLOUDY    33  27  78 W6        29.95S WCI  28
WESTHAMPTON    CLOUDY    32  26  78 W6        29.95F WCI  26
MONTAUK POINT    N/A     38  27  64 NW10      29.92F WCI  31
$$

NYZ052-065-067-190700-
HUDSON VALLEY

CITY           SKY/WX    TMP DP  RH WIND       PRES   REMARKS
WHITE PLAINS   MOCLDY    35  25  66 NW9       29.93R WCI  28
NEWBURGH       MOCLDY    34  27  75 W12       29.95  WCI  25
MONTGOMERY     CLOUDY    35  25  66 NW7       29.94F WCI  29
POUGHKEEPSIE   CLOUDY    37  25  61 NW6       29.95S WCI  32
ALBANY         CLOUDY    33  24  69 W15       29.95S WCI  23
$$

NJZ001-105-106-008-010-013-015-019>022-104-190700-
NEW JERSEY

CITY           SKY/WX    TMP DP  RH WIND       PRES   REMARKS
NEWARK/LIBERTY MOCLDY    37  27  67 NW9       29.98S WCI  30
TETERBORO      CLOUDY    37  26  64 NW7       29.96F WCI  32
CALDWELL       MOCLDY    36  25  64 W5        29.98R WCI  32
MORRISTOWN       N/A     37  27  65 W7        29.98S WCI  32
SOMERVILLE     CLOUDY    38  23  55 NW10      29.98S WCI  31
SUSSEX         CLOUDY    35  25  66 CALM      29.96F
ANDOVER          N/A     35  24  64 CALM      29.97S
TRENTON        CLOUDY    36  25  64 NW9       29.99F WCI  29
MILLVILLE      CLOUDY    36  25  64 W10       30.03F WCI  28
ATLANTIC CITY  CLOUDY    36  26  67 W13       30.01F WCI  27
WRIGHTSTOWN    MOCLDY    36  26  68 W9        29.97F WCI  29
TOMS RIVER     CLOUDY    36  27  69 W12       29.99F WCI  27
BELMAR         MOCLDY    36  23  60 W9        29.97S WCI  29
$$

PAZ047>061-062-071-190700-
EASTERN PENNSYLVANIA

CITY           SKY/WX    TMP DP  RH WIND       PRES   REMARKS
PHILADELPHIA   CLOUDY    38  25  59 W12       30.04F WCI  30
ALLENTOWN      CLOUDY    36  25  64 W5        30.00F WCI  32
SCRANTON       CLOUDY    34  23  64 W8G21     29.98S WCI  27
$$

CTZ002-004>006-009-010-012-RIZ004-006-007-MAZ004-011-015-190700-
SOUTHERN NEW ENGLAND
 IN CT

CITY           SKY/WX    TMP DP  RH WIND       PRES   REMARKS
BRADLEY INTL   CLOUDY    36  25  64 NW14      29.91S WCI  27
HARTFORD       CLOUDY    36  26  67 W10G17    29.93S WCI  28
DANBURY        CLOUDY    34  23  64 W5        29.94S WCI  30
WTRBRY/OXFORD  CLOUDY    32  21  64 NW5       29.92S WCI  27
BRIDGEPORT     CLOUDY    36  28  73 CALM      29.95S
MERIDEN        CLOUDY    36  25  64 NW7       29.92F WCI  30
NEW HAVEN      CLOUDY    38  27  64 NW3       29.93F
CHESTER        CLOUDY    34  28  80 NW6       29.91S WCI  29
GROTON         PTCLDY    34  26  72 NW7       29.91F WCI  28
WILLIMANTIC    CLOUDY    35  25  66 NW8       29.91S WCI  29

 IN RI

CITY           SKY/WX    TMP DP  RH WIND       PRES   REMARKS
PROVIDENCE     MOCLDY    35  26  69 W9        29.89S WCI  28
BLOCK ISLAND   MOCLDY    36  25  64 NW12G18   29.90S WCI  27
WESTERLY       CLOUDY    35  26  69 W5        29.91S WCI  31

 IN MA

CITY           SKY/WX    TMP DP  RH WIND       PRES   REMARKS
BOSTON         CLOUDY    37  25  61 W13       29.86F WCI  29
WORCESTER      CLOUDY    31  26  82 W7        29.84S WCI  24
WESTFIELD      CLOUDY    35  24  64 W12       29.91S WCI  27
PROVINCETOWN   PTCLDY    37  27  65 NW16G24   29.84F WCI  28
NANTUCKET      CLEAR     35  28  75 W9        29.86S WCI  28
$$

ANZ330-335-338-340-345-350-353-355-190700-
COASTAL MARINE OBSERVATIONS


STATION/POSITION TIME  SKY/WX   TEMP    WIND        PRES    VSBY  WAVE
                                AIR SEA DIR/SP/G                  HT/PER
                 (UTC)          (F)     (DEG/KT/KT) (MB)    (MI)  (FT/S)
NY HARB ENTRANCE 0600            40 47  300/ 17/ 21 1014.9          2/ 3
4S FIRE IS       0600               47                N/A           2/ 4
20S FIRE ISLAND  0500            41 49              1014.7          3/ 5
23SW MTP         0600                                 N/A           4/ 6
HUDSON CANYON    0600            42 55  310/ 16/ 19 1013.7          5/ 6
EXECUTION ROCKS  0600            39 42  310/ 10/ 14   N/A
WESTERN LI SOUND 0600            38     290/ 10/ 14   N/A           0
CENTRAL LI SOUND 0500            38 44  300/ 14/ 19   N/A           2/ 4
EASTERN LI SOUND NOT AVBL
ROBBINS REEF     0600            38     330/ 11/ 16 1013.7
$$


>>>>>>>>>>>>>>>>>>>>>>>>>>>> KEY <<<<<<<<<<<<<<<<<<<<<<<<<<<
>                                                          <
>     SKY/WX - SKY CONDITION/PRESENT WEATHER               <
>     TMP    - TEMPERATURE IN FAHRENHEIT                   <
>     DP     - DEWPOINT IN FAHRENHEIT                      <
>     RH     - RELATIVE HUMIDITY IN PERCENT                <
>     WIND   - DIRECTION AND SPEED IN MPH                  <
>     PRES   - MEAN SEA LEVEL PRESSURE IN INCHES OF HG     <
>     WCI    - WIND CHILL INDEX                            <
>     VSB    - VISIBILITY IN MILES                         <
>     HX     - HEAT INDEX                                  <
>     TC     - TEMPERATURE IN CELSIUS                      <
>     VRB    - VARIABLE WIND DIRECTION                     <
>                                                          <
>>>>>>>>>>>>>>>>>>>>>>>>>>>> KEY <<<<<<<<<<<<<<<<<<<<<<<<<<<




USA.gov is the U.S. government's official web portal to all federal, state and local government web resources and services.